• In Uzbekistan
  • List of Countries
  • For 7 days
  • Water Temperature
  • Satellite Maps
  • Weather Map
  • Weather Widgets
  • user-avatar
    Login

    Hourly Weather Mikolajowice

    Today, 21 August, Tuesday

    Time Temperature Precipitation Wind Pressure Humidity
    00:00 +21°C° 0 mm 2 mps 745 mmHg 73%
    01:00 +21°C° 0 mm 2 mps 745 mmHg 72%
    02:00 +20°C° 0 mm 2 mps 745 mmHg 76%
    03:00 +20°C° 0 mm 2 mps 746 mmHg 79%
    04:00 +19°C° 0 mm 2 mps 746 mmHg 82%
    05:00 +20°C° 0 mm 2 mps 746 mmHg 80%
    06:00 +21°C° 0 mm 2 mps 746 mmHg 77%
    07:00 +23°C° 0 mm 2 mps 747 mmHg 74%
    08:00 +24°C° 0 mm 2 mps 747 mmHg 69%
    09:00 +25°C° 0 mm 2 mps 747 mmHg 64%
    10:00 +27°C° 0 mm 3 mps 747 mmHg 59%
    11:00 +27°C° 0 mm 3 mps 747 mmHg 58%
    12:00 +27°C° 0 mm 3 mps 747 mmHg 57%
    13:00 +27°C° 0 mm 3 mps 747 mmHg 56%
    14:00 +27°C° 0 mm 3 mps 747 mmHg 56%
    15:00 +27°C° 0 mm 3 mps 747 mmHg 56%
    16:00 +27°C° 0 mm 2 mps 747 mmHg 56%
    17:00 +25°C° 0 mm 2 mps 747 mmHg 61%
    18:00 +24°C° 0 mm 2 mps 747 mmHg 66%
    19:00 +21°C° 0 mm 2 mps 747 mmHg 72%
    20:00 +21°C° 0 mm 1 mps 747 mmHg 74%
    21:00 +20°C° 0 mm 1 mps 748 mmHg 77%
    22:00 +19°C° 0 mm 1 mps 748 mmHg 80%
    23:00 +19°C° 0 mm 1 mps 748 mmHg 81%

    Tomorrow, 22 August, Wednesday

    Time Temperature Precipitation Wind Pressure Humidity
    00:00 +19°C° 0 mm 1 mps 748 mmHg 81%
    01:00 +16°C° 0 mm 0 mps 748 mmHg 82%
    02:00 +18°C° 0 mm 1 mps 748 mmHg 83%
    03:00 +16°C° 0 mm 1 mps 748 mmHg 84%
    04:00 +16°C° 0 mm 1 mps 748 mmHg 86%
    05:00 +18°C° 0 mm 1 mps 748 mmHg 81%
    06:00 +19°C° 0 mm 1 mps 749 mmHg 77%
    07:00 +20°C° 0 mm 1 mps 749 mmHg 72%
    08:00 +21°C° 0 mm 2 mps 749 mmHg 66%
    09:00 +23°C° 0 mm 2 mps 749 mmHg 60%
    10:00 +25°C° 0 mm 2 mps 749 mmHg 54%
    11:00 +25°C° 0 mm 2 mps 749 mmHg 52%
    12:00 +26°C° 0 mm 2 mps 748 mmHg 50%
    13:00 +27°C° 0 mm 3 mps 748 mmHg 49%
    14:00 +27°C° 0 mm 3 mps 748 mmHg 50%
    15:00 +26°C° 0 mm 3 mps 748 mmHg 51%
    16:00 +26°C° 0 mm 3 mps 747 mmHg 52%
    17:00 +25°C° 0 mm 2 mps 747 mmHg 60%
    18:00 +23°C° 0 mm 2 mps 747 mmHg 68%
    19:00 +20°C° 0 mm 2 mps 747 mmHg 75%
    20:00 +19°C° 0 mm 2 mps 747 mmHg 79%
    21:00 +18°C° 0 mm 2 mps 748 mmHg 83%
    22:00 +17°C° 0 mm 2 mps 748 mmHg 87%
    23:00 +17°C° 0 mm 2 mps 747 mmHg 88%

    Day after tomorrow, 23 August, Thursday

    Time Temperature Precipitation Wind Pressure Humidity
    00:00 +18°C° 0 mm 1 mps 747 mmHg 89%
    01:00 +16°C° 0 mm 1 mps 747 mmHg 91%
    02:00 +16°C° 0 mm 1 mps 747 mmHg 91%
    03:00 +16°C° 0 mm 1 mps 747 mmHg 92%
    04:00 +16°C° 0 mm 1 mps 747 mmHg 92%
    05:00 +18°C° 0 mm 1 mps 746 mmHg 87%
    06:00 +19°C° 0 mm 1 mps 746 mmHg 82%
    07:00 +21°C° 0 mm 1 mps 746 mmHg 77%
    08:00 +23°C° 0 mm 1 mps 746 mmHg 70%
    09:00 +25°C° 0 mm 1 mps 746 mmHg 63%
    10:00 +27°C° 0 mm 1 mps 746 mmHg 56%
    11:00 +28°C° 0 mm 1 mps 746 mmHg 54%
    12:00 +29°C° 0 mm 1 mps 745 mmHg 51%
    13:00 +30°C° 0 mm 1 mps 745 mmHg 48%
    14:00 +30°C° 0.3 mm 1 mps 745 mmHg 50%
    15:00 +30°C° 0.3 mm 1 mps 744 mmHg 52%
    16:00 +30°C° 0.3 mm 1 mps 744 mmHg 54%
    17:00 +28°C° 0 mm 1 mps 744 mmHg 59%
    18:00 +26°C° 0 mm 2 mps 744 mmHg 65%
    19:00 +24°C° 0 mm 2 mps 744 mmHg 71%
    20:00 +23°C° 0.1 mm 2 mps 744 mmHg 73%
    21:00 +23°C° 0.1 mm 2 mps 744 mmHg 75%
    22:00 +21°C° 0.1 mm 2 mps 744 mmHg 77%
    23:00 +21°C° 0 mm 2 mps 744 mmHg 78%

    24 August, Friday

    Time Temperature Precipitation Wind Pressure Humidity
    00:00 +21°C° 0 mm 2 mps 743 mmHg 79%
    01:00 +20°C° 0 mm 2 mps 743 mmHg 80%
    02:00 +20°C° 0 mm 2 mps 743 mmHg 80%
    03:00 +20°C° 0 mm 2 mps 743 mmHg 80%
    04:00 +20°C° 0 mm 2 mps 742 mmHg 80%
    05:00 +21°C° 0 mm 2 mps 742 mmHg 77%
    06:00 +23°C° 0 mm 2 mps 742 mmHg 74%
    07:00 +25°C° 0 mm 2 mps 742 mmHg 70%
    08:00 +27°C° 0 mm 2 mps 742 mmHg 62%
    09:00 +29°C° 0 mm 3 mps 742 mmHg 55%
    10:00 +31°C° 0 mm 3 mps 742 mmHg 47%
    11:00 +31°C° 0 mm 3 mps 741 mmHg 45%
    12:00 +33°C° 0 mm 3 mps 741 mmHg 44%
    13:00 +33°C° 0 mm 3 mps 741 mmHg 43%
    14:00 +33°C° 0 mm 3 mps 740 mmHg 45%
    15:00 +31°C° 0 mm 3 mps 740 mmHg 47%
    16:00 +31°C° 0 mm 2 mps 740 mmHg 49%
    17:00 +29°C° 0 mm 2 mps 740 mmHg 54%
    18:00 +27°C° 0 mm 2 mps 740 mmHg 58%
    19:00 +25°C° 0 mm 2 mps 739 mmHg 63%
    20:00 +24°C° 0.2 mm 2 mps 739 mmHg 66%
    21:00 +23°C° 0.2 mm 2 mps 739 mmHg 69%
    22:00 +21°C° 0.2 mm 2 mps 739 mmHg 72%
    23:00 +21°C° 0.2 mm 2 mps 739 mmHg 75%

    25 August, Saturday

    Time Temperature Precipitation Wind Pressure Humidity
    00:00 +21°C° 0.2 mm 2 mps 739 mmHg 78%
    01:00 +20°C° 0.2 mm 2 mps 739 mmHg 80%
    02:00 +20°C° 0.7 mm 2 mps 739 mmHg 83%
    03:00 +21°C° 0.7 mm 1 mps 739 mmHg 86%
    04:00 +20°C° 0.7 mm 1 mps 739 mmHg 90%
    05:00 +21°C° 0.9 mm 1 mps 739 mmHg 90%
    06:00 +21°C° 0.9 mm 1 mps 739 mmHg 90%
    07:00 +21°C° 0.9 mm 1 mps 740 mmHg 90%
    08:00 +22°C° 0.1 mm 1 mps 740 mmHg 85%
    09:00 +24°C° 0.1 mm 2 mps 740 mmHg 81%
    10:00 +25°C° 0.1 mm 2 mps 740 mmHg 76%
    11:00 +24°C° 1 mm 3 mps 740 mmHg 77%
    12:00 +24°C° 1 mm 3 mps 740 mmHg 78%
    13:00 +24°C° 1 mm 3 mps 740 mmHg 80%
    14:00 +22°C° 0.6 mm 3 mps 740 mmHg 81%
    15:00 +21°C° 0.6 mm 4 mps 740 mmHg 83%
    16:00 +21°C° 0.6 mm 4 mps 740 mmHg 85%
    17:00 +20°C° 0.4 mm 3 mps 740 mmHg 87%
    18:00 +19°C° 0.4 mm 3 mps 740 mmHg 90%
    19:00 +18°C° 0.4 mm 3 mps 740 mmHg 93%
    20:00 +18°C° 0.5 mm 3 mps 739 mmHg 94%
    21:00 +18°C° 0.5 mm 3 mps 739 mmHg 94%
    22:00 +18°C° 0.5 mm 3 mps 739 mmHg 95%
    23:00 +18°C° 0.6 mm 2 mps 739 mmHg 96%

    26 August, Sunday

    Time Temperature Precipitation Wind Pressure Humidity
    00:00 +18°C° 0.6 mm 2 mps 738 mmHg 96%
    01:00 +18°C° 0.6 mm 2 mps 738 mmHg 97%
    02:00 +18°C° 0.4 mm 2 mps 738 mmHg 97%
    03:00 +19°C° 0.4 mm 1 mps 737 mmHg 97%
    04:00 +19°C° 0.4 mm 1 mps 737 mmHg 97%
    05:00 +19°C° 0.5 mm 1 mps 737 mmHg 96%
    06:00 +20°C° 0.5 mm 1 mps 737 mmHg 96%
    07:00 +20°C° 0.5 mm 1 mps 738 mmHg 95%
    08:00 +20°C° 0.4 mm 1 mps 738 mmHg 93%
    09:00 +21°C° 0.4 mm 1 mps 738 mmHg 91%
    10:00 +20°C° 0.4 mm 2 mps 738 mmHg 89%
    11:00 +19°C° 1.1 mm 3 mps 738 mmHg 90%
    12:00 +18°C° 1.1 mm 4 mps 739 mmHg 90%
    13:00 +16°C° 1.1 mm 6 mps 739 mmHg 91%
    14:00 +15°C° 0.1 mm 5 mps 739 mmHg 90%
    15:00 +15°C° 0.1 mm 5 mps 740 mmHg 89%
    16:00 +14°C° 0.1 mm 5 mps 740 mmHg 88%
    17:00 +13°C° 0.2 mm 5 mps 741 mmHg 88%
    18:00 +13°C° 0.2 mm 4 mps 741 mmHg 89%
    19:00 +12°C° 0.2 mm 4 mps 742 mmHg 90%
    20:00 +12°C° 0 mm 4 mps 742 mmHg 91%
    21:00 +12°C° 0 mm 4 mps 743 mmHg 91%
    22:00 +11°C° 0 mm 4 mps 743 mmHg 91%
    23:00 +11°C° 0 mm 4 mps 743 mmHg 91%
    Show more